Weather History for KAEL - May, 2013

Change the Weather History Date:

Wednesday, May 22, 2013

  Actual Average Record
Temperature  
Mean Temperature 54 °F -  
Max Temperature 57 °F 66 °F 84 °F (2012)
Min Temperature 51 °F 47 °F 37 °F (2008)
Degree Days  
Heating Degree Days 11    
Growing Degree Days 4 (Base 50)    
Moisture  
Dew Point 51 °F    
Average Humidity 89    
Maximum Humidity 94    
Minimum Humidity 82    
Precipitation  
Precipitation 0.21 in - - ()
Sea Level Pressure  
Sea Level Pressure 29.73 in    
Wind  
Wind Speed 6 mph (North)    
Max Wind Speed 14 mph    
Max Gust Speed 20 mph    
Visibility 8 miles    
Events Rain    
Averages and records for this station are not official NWS values.
T = Trace of Precipitation, MM = Missing Value Source: NWS Daily Summary

Daily Weather History Graph

Daily Weather History Graph

Search for Another Location

Airport or City:

Trip Planner

Search our weather history database for the weather conditions in past years. The results will help you decide how hot, cold, wet, or windy it might be!

Date:

Astronomy

May. 22, 2013 Rise Set
Actual Time 5:41 AM CDT 8:39 PM CDT
Civil Twilight 5:07 AM CDT 9:13 PM CDT
Nautical Twilight 4:24 AM CDT 9:57 PM CDT
Astronomical Twilight 3:32 AM CDT 10:48 PM CDT
Moon 5:58 PM CDT (5/22) 3:51 AM CDT (5/22)
Length of Visible Light 16h 06m
Length of Day
14h 58m
Waxing Gibbous, 91% of the Moon is Illuminated
May 22
Waxing Gibbous
May 24
Full
May 31
Last Quarter
Jun 8
New
Jun 16
First Quarter

Hourly Weather History & Observations

Time (CDT) Temp. Dew Point Humidity Pressure Visibility Wind Dir Wind Speed Gust Speed Precip Events Conditions
12:12 AM 57.2 °F 51.8 °F 82% 29.66 in 10.0 mi Calm Calm - N/A   Overcast
12:33 AM 57.2 °F 51.8 °F 82% 29.67 in 10.0 mi Calm Calm - N/A   Overcast
12:52 AM 57.2 °F 53.6 °F 88% 29.67 in 10.0 mi Calm Calm - N/A   Overcast
1:12 AM 57.2 °F 53.6 °F 88% 29.66 in 10.0 mi Calm Calm - N/A   Overcast
1:33 AM 57.2 °F 53.6 °F 88% 29.65 in 10.0 mi North 3.5 mph - N/A   Overcast
1:52 AM 57.2 °F 53.6 °F 88% 29.65 in 10.0 mi Calm Calm - N/A   Overcast
2:12 AM 57.2 °F 51.8 °F 82% 29.65 in 10.0 mi Calm Calm - N/A   Overcast
2:33 AM 57.2 °F 53.6 °F 88% 29.65 in 10.0 mi Calm Calm - N/A   Overcast
2:52 AM 57.2 °F 51.8 °F 82% 29.66 in 10.0 mi Calm Calm - N/A   Overcast
3:12 AM 57.2 °F 51.8 °F 82% 29.66 in 10.0 mi Calm Calm - N/A   Overcast
3:33 AM 57.2 °F 51.8 °F 82% 29.66 in 10.0 mi North 4.6 mph - N/A   Overcast
3:52 AM 57.2 °F 51.8 °F 82% 29.66 in 10.0 mi North 3.5 mph - N/A   Overcast
4:12 AM 57.2 °F 51.8 °F 82% 29.66 in 10.0 mi North 3.5 mph - N/A   Overcast
4:33 AM 57.2 °F 53.6 °F 88% 29.67 in 4.0 mi NNW 4.6 mph - N/A   Drizzle
4:52 AM 57.2 °F 53.6 °F 88% 29.66 in 5.0 mi NW 4.6 mph - N/A   Overcast
5:12 AM 57.2 °F 53.6 °F 88% 29.65 in 4.0 mi North 6.9 mph - N/A   Overcast
5:33 AM 57.2 °F 53.6 °F 88% 29.65 in 7.0 mi North 5.8 mph - N/A   Overcast
5:52 AM 55.4 °F 53.6 °F 94% 29.66 in 7.0 mi NNE 10.4 mph - N/A   Overcast
6:12 AM 55.4 °F 53.6 °F 94% 29.66 in 7.0 mi NNE 10.4 mph - N/A   Overcast
6:32 AM 55.4 °F 51.8 °F 88% 29.66 in 4.0 mi NNE 8.1 mph - N/A   Overcast
6:52 AM 55.4 °F 51.8 °F 88% 29.66 in 7.0 mi NNE 10.4 mph - N/A   Overcast
7:12 AM 55.4 °F 51.8 °F 88% 29.66 in 7.0 mi North 9.2 mph - N/A   Overcast
7:32 AM 55.4 °F 51.8 °F 88% 29.66 in 10.0 mi North 6.9 mph - N/A   Overcast
7:52 AM 55.4 °F 51.8 °F 88% 29.66 in 10.0 mi NNE 10.4 mph - N/A   Overcast
8:12 AM 55.4 °F 51.8 °F 88% 29.66 in 10.0 mi North 9.2 mph - N/A   Overcast
8:32 AM 55.4 °F 51.8 °F 88% 29.66 in 10.0 mi NNE 9.2 mph - N/A   Overcast
8:52 AM 55.4 °F 51.8 °F 88% 29.67 in 10.0 mi NNE 8.1 mph - N/A   Overcast
9:12 AM 55.4 °F 51.8 °F 88% 29.68 in 10.0 mi North 10.4 mph - N/A   Overcast
9:32 AM 55.4 °F 51.8 °F 88% 29.68 in 10.0 mi North 8.1 mph - N/A   Overcast
9:52 AM 55.4 °F 51.8 °F 88% 29.68 in 10.0 mi North 5.8 mph - N/A Rain Light Rain
10:12 AM 55.4 °F 53.6 °F 94% 29.69 in 7.0 mi North 6.9 mph - N/A Rain Light Rain
10:32 AM 55.4 °F 53.6 °F 94% 29.69 in 10.0 mi North 6.9 mph - 0.01 in Rain Light Rain
10:53 AM 55.4 °F 53.6 °F 94% 29.69 in 7.0 mi North 10.4 mph - N/A Rain Rain
11:12 AM 55.4 °F 53.6 °F 94% 29.69 in 10.0 mi North 9.2 mph - N/A   Drizzle
11:32 AM 55.4 °F 51.8 °F 88% 29.70 in 10.0 mi North 8.1 mph - 0.01 in Rain Light Rain
11:53 AM 55.4 °F 53.6 °F 94% 29.70 in 5.0 mi North 6.9 mph - N/A Rain Light Rain
12:12 PM 55.4 °F 53.6 °F 94% 29.70 in 5.0 mi North 9.2 mph - 0.02 in Rain Light Rain
12:32 PM 55.4 °F 51.8 °F 88% 29.71 in 5.0 mi NNW 8.1 mph - 0.03 in Rain Light Rain
12:53 PM 55.4 °F 51.8 °F 88% 29.71 in 5.0 mi NNW 10.4 mph - N/A Rain Rain
1:12 PM 55.4 °F 51.8 °F 88% 29.71 in 7.0 mi NNW 11.5 mph - 0.02 in Rain Rain
1:33 PM 55.4 °F 51.8 °F 88% 29.72 in 7.0 mi North 10.4 mph 17.3 mph 0.04 in Rain Light Rain
1:52 PM 55.4 °F 51.8 °F 88% 29.72 in 7.0 mi North 11.5 mph 16.1 mph N/A Rain Light Rain
2:12 PM 55.4 °F 51.8 °F 88% 29.73 in 10.0 mi North 10.4 mph - N/A Rain Light Rain
2:33 PM 53.6 °F 51.8 °F 94% 29.73 in 7.0 mi North 10.4 mph - 0.01 in Rain Rain
2:52 PM 53.6 °F 51.8 °F 94% 29.74 in 7.0 mi North 12.7 mph 16.1 mph N/A   Drizzle
3:12 PM 53.6 °F 51.8 °F 94% 29.74 in 7.0 mi North 12.7 mph 17.3 mph N/A   Light Drizzle
3:33 PM 53.6 °F 50.0 °F 88% 29.75 in 7.0 mi North 11.5 mph 17.3 mph N/A   Drizzle
3:52 PM 53.6 °F 50.0 °F 88% 29.75 in 5.0 mi North 12.7 mph 16.1 mph N/A Rain Light Rain
4:12 PM 53.6 °F 51.8 °F 94% 29.75 in 5.0 mi North 12.7 mph 18.4 mph 0.01 in Rain Light Rain
4:33 PM 53.6 °F 51.8 °F 94% 29.76 in 4.0 mi North 10.4 mph - 0.03 in Rain Light Rain
4:52 PM 53.6 °F 51.8 °F 94% 29.76 in 7.0 mi North 10.4 mph - N/A Rain Light Rain
5:12 PM 53.6 °F 51.8 °F 94% 29.77 in 10.0 mi North 10.4 mph - 0.01 in   Drizzle
5:33 PM 53.6 °F 51.8 °F 94% 29.77 in 10.0 mi North 10.4 mph - 0.01 in   Drizzle
5:52 PM 53.6 °F 50.0 °F 88% 29.78 in 7.0 mi North 10.4 mph 17.3 mph N/A   Drizzle
6:12 PM 53.6 °F 51.8 °F 94% 29.79 in 7.0 mi North 10.4 mph - N/A   Drizzle
6:33 PM 53.6 °F 50.0 °F 88% 29.79 in 7.0 mi North 9.2 mph 17.3 mph 0.01 in   Drizzle
6:52 PM 53.6 °F 50.0 °F 88% 29.80 in 7.0 mi North 10.4 mph - 0.01 in Rain Light Rain
7:12 PM 53.6 °F 50.0 °F 88% 29.80 in 7.0 mi North 12.7 mph 17.3 mph 0.02 in   Heavy Drizzle
7:33 PM 53.6 °F 50.0 °F 88% 29.81 in 7.0 mi North 13.8 mph 17.3 mph 0.04 in Rain Rain
7:52 PM 53.6 °F 50.0 °F 88% 29.82 in 5.0 mi North 9.2 mph 17.3 mph N/A Rain Light Rain
8:12 PM 53.6 °F 50.0 °F 88% 29.83 in 7.0 mi North 11.5 mph 17.3 mph 0.02 in Rain Rain
8:33 PM 53.6 °F 50.0 °F 88% 29.83 in 7.0 mi North 11.5 mph - 0.02 in   Drizzle
8:52 PM 51.8 °F 50.0 °F 94% 29.84 in 7.0 mi North 13.8 mph 18.4 mph N/A   Drizzle
9:12 PM 51.8 °F 48.2 °F 88% 29.85 in 10.0 mi North 13.8 mph - N/A   Overcast
9:33 PM 51.8 °F 48.2 °F 88% 29.86 in 10.0 mi North 12.7 mph 18.4 mph N/A   Overcast
9:52 PM 51.8 °F 48.2 °F 88% 29.87 in 10.0 mi North 11.5 mph 19.6 mph N/A   Overcast
10:12 PM 51.8 °F 48.2 °F 88% 29.88 in 10.0 mi North 12.7 mph - N/A   Overcast
10:33 PM 51.8 °F 48.2 °F 88% 29.89 in 10.0 mi North 11.5 mph 16.1 mph N/A   Overcast
10:52 PM 51.8 °F 48.2 °F 88% 29.89 in 10.0 mi North 10.4 mph - N/A   Overcast
11:12 PM 51.8 °F 48.2 °F 88% 29.90 in 10.0 mi North 10.4 mph - N/A   Overcast
11:32 PM 51.8 °F 48.2 °F 88% 29.91 in 10.0 mi North 11.5 mph - N/A   Overcast
11:52 PM 51.8 °F 48.2 °F 88% 29.92 in 10.0 mi North 10.4 mph - N/A   Overcast